Location: Unspecified
(33.9239°N, 118.0544°W)
Time: 02:26:33
(UTC-07:00)

Cosmos 2058 - Visible Passes

Search period start: 25 October 2014 00:00
Search period end: 03 November 2014 23:00
Orbit: 571 x 592 km, 82.5° (Epoch: 24 October)

Date Brightness Start Highest point End Pass type
(mag) Time Alt. Az. Time Alt. Az. Time Alt. Az.
25 Oct 2.8 05:30:09 40° SW 05:31:27 60° W 05:35:37 10° N visible
26 Oct 6.2 04:01:48 10° ENE 04:01:48 10° ENE 04:01:52 10° ENE visible
26 Oct 3.8 05:38:19 31° NW 05:38:19 31° NW 05:41:01 10° N visible
27 Oct 5.0 05:45:31 14° NNW 05:45:31 14° NNW 05:46:17 10° NNW visible
